TimeEST,TemperatureF,Dew PointF,Humidity,Sea Level PressureIn,VisibilityMPH,Wind Direction,Wind SpeedMPH,Gust SpeedMPH,PrecipitationIn,Events,Conditions,WindDirDegrees,DateUTC
12:06 AM,62.6,62.6,100,29.46,5.0,South,15.0,23.0,0.02,Rain,Light Rain,180,2012-12-21 05:06:00
12:13 AM,62.6,62.6,100,29.45,7.0,South,20.7,31.1,0.02,Rain,Light Rain,170,2012-12-21 05:13:00
12:31 AM,64.4,62.6,94,29.43,10.0,South,18.4,33.4,0.02,,Overcast,170,2012-12-21 05:31:00
12:53 AM,64.0,63.0,96,29.44,10.0,South,18.4,27.6,0.02,Rain,Light Rain,190,2012-12-21 05:53:00
1:17 AM,59.0,55.4,88,29.47,6.0,WSW,18.4,38.0,0.01,Rain,Light Rain,250,2012-12-21 06:17:00
1:53 AM,57.0,48.0,72,29.47,10.0,WSW,13.8,27.6,0.01,,Overcast,240,2012-12-21 06:53:00
2:53 AM,52.0,44.1,74,29.49,10.0,SW,12.7,28.8,N/A,,Mostly Cloudy,230,2012-12-21 07:53:00
3:10 AM,51.8,42.8,71,29.50,10.0,WSW,17.3,25.3,N/A,,Mostly Cloudy,240,2012-12-21 08:10:00
3:53 AM,50.0,41.0,71,29.50,10.0,SW,15.0,24.2,N/A,,Overcast,230,2012-12-21 08:53:00
4:53 AM,48.0,33.1,56,29.52,10.0,West,13.8,31.1,N/A,,Overcast,260,2012-12-21 09:53:00
5:53 AM,46.0,28.0,50,29.56,10.0,West,13.8,28.8,N/A,,Clear,260,2012-12-21 10:53:00
6:53 AM,44.1,27.0,51,29.58,10.0,West,13.8,21.9,N/A,,Clear,270,2012-12-21 11:53:00
7:53 AM,43.0,28.0,56,29.60,10.0,WSW,11.5,-,N/A,,Clear,240,2012-12-21 12:53:00
8:53 AM,45.0,28.9,53,29.60,10.0,WSW,9.2,19.6,N/A,,Clear,250,2012-12-21 13:53:00
9:53 AM,46.9,28.9,50,29.61,10.0,WSW,13.8,26.5,N/A,,Clear,250,2012-12-21 14:53:00
10:53 AM,46.9,27.0,46,29.62,10.0,West,15.0,27.6,N/A,,Mostly Cloudy,270,2012-12-21 15:53:00
11:53 AM,46.0,27.0,47,29.61,10.0,West,15.0,28.8,N/A,,Overcast,270,2012-12-21 16:53:00
12:53 PM,46.9,23.0,39,29.60,10.0,West,18.4,34.5,N/A,,Overcast,260,2012-12-21 17:53:00
1:53 PM,48.0,21.9,36,29.61,10.0,West,21.9,28.8,N/A,,Overcast,260,2012-12-21 18:53:00
2:53 PM,46.9,23.0,39,29.62,10.0,West,19.6,33.4,N/A,,Overcast,270,2012-12-21 19:53:00
3:53 PM,46.0,21.9,39,29.63,10.0,West,17.3,32.2,N/A,,Scattered Clouds,280,2012-12-21 20:53:00
4:53 PM,44.1,21.0,40,29.66,10.0,West,12.7,28.8,N/A,,Partly Cloudy,260,2012-12-21 21:53:00
5:53 PM,43.0,19.9,40,29.70,10.0,West,10.4,24.2,N/A,,Partly Cloudy,270,2012-12-21 22:53:00
6:53 PM,41.0,19.9,43,29.73,10.0,West,9.2,19.6,N/A,,Clear,270,2012-12-21 23:53:00
7:53 PM,41.0,19.0,41,29.75,10.0,West,16.1,26.5,N/A,,Clear,280,2012-12-22 00:53:00
8:53 PM,39.9,19.9,45,29.76,10.0,West,10.4,19.6,N/A,,Clear,270,2012-12-22 01:53:00
9:53 PM,39.9,21.0,47,29.77,10.0,West,12.7,20.7,N/A,,Mostly Cloudy,270,2012-12-22 02:53:00
10:53 PM,39.0,21.0,49,29.78,10.0,West,10.4,19.6,N/A,,Clear,270,2012-12-22 03:53:00
11:53 PM,37.9,21.0,51,29.79,10.0,West,10.4,20.7,N/A,,Clear,270,2012-12-22 04:53:00